SHIYAN-12 02 (SY-12 02)

Last updated on Sun Jun 21 2026 00:03:08 GMT+0000 (Coordinated Universal Time)

1 50322U 21129B 26171.33878891 -.00000285 00000+0 00000+0 0 9995 2 50322 3.6832 79.8744 0002777 58.4175 343.5989 1.00488779 16538
UTC large
Height (km)
Speed (km/s)
/
Latitude / Longitude
Inclination (degrees)
Orbital Period (minutes)
Azimuth
Elevation
Range (km)
Doppler Factor

Next 0 passes for location: London (51.5072 / 0.1276)

No passes found over London.
SHIYAN-12 02 (SY-12 02)